Find Starlink 4530

NORAD ID: 53393 Int'l Des: 2022-097 Owner: SPXS Country: US Constellation: starlink operational
LEOCIRCULAR

リアルタイム位置

3D地球を読み込み中...

Starlink 4530について

説明を読み込み中...

次回通過

Passes for default location (London). Set your location on the main map for personalized predictions.

高度履歴

Loading altitude history...

軌道要素

1 53393U 22097F 26120.77340422 -.00000259 00000-0 18441-5 0 9993
2 53393 53.2175 250.3059 0001314 94.3310 265.7832 15.08837308206533
Epoch: Apr 30, 2026 • Age: 17 hours

現在のステータス

高度 543.2 km
速度 7.59 km/s
衛星直下点 -12.34°S, 47.31°E
打ち上げ日 Aug 10, 2022
運用期間 3.7 years
タイプ internet

技術仕様

分類 Payload
質量 297.00 kg
乾燥質量 275.00 kg
総質量 297.00 kg
長さ 0.20 m
直径 2.80 m
スパン 9.00 m
形状 Box + pan
製造者 SPXS
バスタイプ Starlink
フェーズステータス In Orbit
所有者/国 SPXS/US

Most Searched